Flag for Poland Weather past 2 weeks in Jastrzębie Zdrój, Poland

45 °F

Light rain. Low clouds.

Feels Like: 42 °F
Forecast: 37 / 51 °F
Wind: 5 mph from Northeast

Location: Ostrava / Mosnov

Current Time: Oct 9, 2015 at 11:39:06 AM

Latest Report: Oct 9, 2015 at 11:00 AM

Visibility: 3 mi

Pressure: 30.17 "Hg

Humidity: 87%

Dew point: 41 °F

Location of Jastrzębie ZdrójLocation

Historic Weather in Jastrzębie Zdrój — Graph


Jastrzębie Zdrój temperature yesterday

Maximum temperature yesterday: 57 °F (at 3:00 PM)
Minimum temperature yesterday: 43 °F (at 7:00 AM)
Average temperature yesterday: 50 °F

Past Weeks' High & Low Weather Summary

High71 °F (Oct 4, 2:00 PM)98% (Oct 7, 6:00 AM)30.58 "Hg (Oct 7, 6:00 AM)
Low33 °F (Oct 1, 7:00 AM)38% (Oct 2, 1:00 PM)29.84 "Hg (Oct 6, 5:00 PM)
Average54 °F72%30.21 "Hg
* Reported Sep 24 10:00 AM — Oct 9 10:00 AM, Jastrzębie Zdrój, Weather by CustomWeather, © 2015

Note: Actual official high and low records may vary slightly from our data, if they occured in-between our weather recording intervals... More about our weather records


Jastrzębie Zdrój weather history for previous 24 hours

Time TempWeatherWind HumidityBarometerVisibility
10:00 AM
Fri, Oct 9
44 °FLight rain. Low clouds.5 mph90%30.17 "Hg3 mi
9:00 AM44 °FLight rain. Low clouds.5 mph96%30.18 "Hg2 mi
8:00 AM44 °FFog.5 mph97%30.15 "Hg2 mi
7:00 AM44 °FLow clouds.5 mph96%30.15 "Hg2 mi
6:00 AM44 °FLight rain. Low clouds.5 mph97%30.14 "Hg2 mi
4:00 AM44 °FLight rain. Low clouds.3 mph96%30.14 "Hg2 mi
3:00 AM45 °FRain. Low clouds.2 mph96%30.14 "Hg2 mi
2:00 AM46 °FRain. Low clouds.5 mph94%30.14 "Hg2 mi
1:00 AM47 °FLight rain. Low clouds.3 mph92%30.13 "Hg2 mi
12:00 AM47 °FLight rain. Overcast.2 mph95%30.13 "Hg3 mi
10:00 PM
Thu, Oct 8
51 °FLight rain. Overcast.5 mph82%30.12 "Hg6 mi
9:00 PM52 °FOvercast.5 mph71%30.10 "Hg6 mi
8:00 PM53 °FOvercast.3 mph74%30.10 "Hg6 mi
7:00 PM53 °FFog.2 mph74%30.09 "Hg5 mi
6:00 PM55 °FFog.3 mph70%30.07 "Hg4 mi
5:00 PM56 °FOvercast.3 mph67%30.07 "Hg4 mi
4:00 PM56 °FOvercast.5 mph64%30.06 "Hg4 mi
3:00 PM57 °FOvercast.3 mph61%30.06 "Hg4 mi
2:00 PM56 °FPartly sunny.3 mph59%30.06 "Hg5 mi
1:00 PM55 °FPartly sunny.N/A61%30.06 "Hg5 mi
12:00 PM51 °FFog.N/A66%30.07 "Hg5 mi
11:00 AM49 °FFog.N/A67%30.07 "Hg5 mi
Weather by CustomWeather, © 2015

See weather overviewHow to use our weather pages